Location: Northcutt
(34.7304°N, 84.4305°W)
Time: 16:02:20
(UTC+00:00)

Tiros 1 - Visible Passes

Search period start: 26 September 2022 00:00
Search period end: 06 October 2022 00:00
Orbit: 629 x 663 km, 48.4° (Epoch: 25 September)

Date Brightness Start Highest point End Pass type
(mag) Time Alt. Az. Time Alt. Az. Time Alt. Az.
26 Sep 9.7 08:35:45 16° NNE 08:35:45 16° NNE 08:37:03 10° NE visible
26 Sep 9.4 10:13:49 10° NW 10:16:35 15° N 10:19:20 10° NE visible
27 Sep 9.4 09:00:17 17° N 09:00:17 17° N 09:02:32 10° NNE visible
27 Sep 9.4 10:39:56 10° NNW 10:42:56 16° N 10:45:55 10° NE visible
28 Sep 9.4 09:24:51 15° NNW 09:25:38 15° N 09:28:24 10° NNE visible
28 Sep 9.2 11:05:31 10° NNW 11:09:11 22° NNE 11:12:50 10° ENE visible
29 Sep 9.5 09:49:25 11° NNW 09:51:59 16° N 09:54:56 10° NE visible
30 Sep 9.9 08:36:23 13° NNE 08:36:23 13° NNE 08:37:30 10° NNE visible
30 Sep 9.2 10:14:39 10° NNW 10:18:15 21° NNE 10:21:50 10° ENE visible
01 Oct 9.5 09:01:03 16° N 09:01:03 16° N 09:03:56 10° NE visible
01 Oct 8.6 10:40:04 10° NW 10:44:21 33° NNE 10:48:34 10° E visible
02 Oct 9.2 09:25:47 17° N 09:27:19 20° NNE 09:30:49 10° ENE visible
02 Oct 7.6 11:05:30 10° NW 11:10:12 63° NE 11:14:50 10° ESE visible
03 Oct 8.7 09:50:38 17° NNW 09:53:26 31° NNE 09:57:36 10° E visible
04 Oct 9.7 08:37:53 17° NE 08:37:53 17° NE 08:39:48 10° ENE visible
04 Oct 7.7 10:15:34 16° NW 10:19:18 58° NNE 10:23:56 10° ESE visible
05 Oct 8.9 09:02:57 28° NE 09:02:57 28° NE 09:06:36 10° E visible
05 Oct 7.2 10:40:37 12° WNW 10:44:56 64° SW 10:49:34 10° SE visible
